Location: Unspecified
(0.0000°N, 0.0000°E)
Time: 18:47:28
(UTC+00:00)

SR - Pass Details

Date: 21 November 2019
Orbit: 573 x 882 km, 66.7° (Epoch: 06 December)

Event Time Altitude Azimuth Distance (km) Brightness Sun altitude
Rises 11:56:06 0° 179° (S) 2,892 ? 69.9°
Reaches altitude 10° 11:58:36 10° 166° (SSE) 2,026 ? 69.8°
Maximum altitude 12:02:27 27° 108° (ESE) 1,297 ? 69.7°
Drops below altitude 10° 12:06:33 10° 52° (NE) 2,178 ? 69.5°
Sets 12:09:19 0° 40° (NE) 3,155 ? 69.3°
